Location: Newark
(33.6333°S, 78.8500°W)
Time: 19:56:09
(UTC+00:00)

Tiros 1 - Pass Details

Date: 21 October 2019
Orbit: 630 x 664 km, 48.4° (Epoch: 18 November)

Event Time Altitude Azimuth Distance (km) Brightness Sun altitude
Rises 01:34:07 0° 237° (WSW) 2,938 12.0 -24.1°
Reaches altitude 10° 01:36:30 10° 242° (WSW) 2,026 10.8 -24.5°
Maximum altitude 01:40:59 48° 316° (NW) 831 7.7 -25.3°
Enters shadow 01:41:01 48° 317° (NW) 831 7.7 -25.3°
Drops below altitude 10° 01:45:28 10° 30° (NNE) 2,018 - -26.1°
Sets 01:47:50 0° 35° (NE) 2,925 - -26.5°
